Beckley, WV

3:41 AM EST on February 25, 2018 (GMT -0500)
Raleigh County Memorial

Weather History for KBKW - November, 2010

Change the Weather History Date:

Friday, November 5, 2010

  Actual Average Record
Temperature  
Mean Temperature 35 °F 48 °F  
Max Temperature 39 °F 57 °F 77 °F (1948)
Min Temperature 31 °F 38 °F 10 °F (1955)
Degree Days  
Heating Degree Days 30 17  
Month to date heating degree days 110 84  
Since 1 July heating degree days 493 590  
Cooling Degree Days 0 0  
Month to date cooling degree days 0 0  
Year to date cooling degree days 871 556  
Moisture  
Dew Point 33 °F    
Average Humidity 90    
Maximum Humidity 100    
Minimum Humidity 79    
Precipitation  
Precipitation 0.18 in 0.09 in 1.23 in (1938)
Month to date precipitation 0.97 0.49  
Year to date precipitation 38.08 35.73  
Snow  
Snow T in 0.00 in 1.50 in (1969)
Month to date snowfall T 0.2  
Since 1 September snowfall T 0.6  
Snow Depth 0.00 in    
Sea Level Pressure  
Sea Level Pressure 29.76 in    
Wind  
Wind Speed 7 mph (WNW)    
Max Wind Speed 16 mph    
Max Gust Speed 23 mph    
Visibility 6 miles    
Events Fog , Rain , Snow    
T = Trace of Precipitation, MM = Missing Value Source: NWS Daily Summary

Daily Weather History Graph

Daily Weather History Graph

Search for Another Location

Airport or City:

Trip Planner

Search our weather history database for the weather conditions in past years. The results will help you decide how hot, cold, wet, or windy it might be!

Date:

Astronomy

Nov. 05, 2010 Rise Set
Actual Time 7:54 AM EDT 6:21 PM EDT
Civil Twilight 7:26 AM EDT 6:49 PM EDT
Nautical Twilight 6:55 AM EDT 7:20 PM EDT
Astronomical Twilight 6:24 AM EDT 7:50 PM EDT
Moon 7:16 AM EDT (11/5) 5:44 PM EDT (11/5)
Length of Visible Light 11h 22m
Length of Day
10h 27m
Waning Crescent, 0% of the Moon is Illuminated
Nov 5
Waning Crescent
Nov 6
New
Nov 13
First Quarter
Nov 21
Full
Nov 28
Last Quarter

Hourly Weather History & Observations

Time (EDT) Temp. Windchill Dew Point Humidity Pressure Visibility Wind Dir Wind Speed Gust Speed Precip Events Conditions
12:51 AM 37.9 °F 33.5 °F 35.1 °F 89% 29.64 in 7.0 mi West 5.8 mph - N/A   Overcast
1:18 AM 37.4 °F 34.9 °F 35.6 °F 93% 29.60 in 7.0 mi West 3.5 mph - N/A   Mostly Cloudy
1:31 AM 37.4 °F 34.9 °F 35.6 °F 93% 29.60 in 7.0 mi West 3.5 mph - N/A   Mostly Cloudy
1:51 AM 37.9 °F 35.5 °F 35.1 °F 89% 29.65 in 8.0 mi West 3.5 mph - 0.00 in Rain Light Rain
2:23 AM 37.4 °F 30.8 °F 33.8 °F 87% 29.61 in 4.0 mi WNW 9.2 mph 17.3 mph 0.02 in Rain Light Rain
2:37 AM 37.4 °F 32.8 °F 33.8 °F 87% 29.60 in 6.0 mi West 5.8 mph - 0.03 in Rain Light Rain
2:44 AM 37.4 °F 33.8 °F 33.8 °F 87% 29.60 in 6.0 mi West 4.6 mph - 0.03 in Rain Light Rain
2:51 AM 37.0 °F 33.3 °F 35.1 °F 93% 29.65 in 6.0 mi West 4.6 mph - 0.03 in   Overcast
3:13 AM 37.4 °F 34.9 °F 35.6 °F 93% 29.60 in 5.0 mi West 3.5 mph - N/A   Overcast
3:51 AM 37.0 °F 32.4 °F 35.1 °F 93% 29.64 in 5.0 mi WNW 5.8 mph - N/A   Overcast
4:26 AM 37.4 °F 30.8 °F 35.6 °F 93% 29.60 in 5.0 mi NW 9.2 mph - 0.00 in Rain Light Rain
4:51 AM 37.0 °F 30.4 °F 35.1 °F 93% 29.65 in 3.0 mi WNW 9.2 mph - 0.02 in Rain Rain
5:36 AM 35.6 °F 30.7 °F 33.8 °F 93% 29.61 in 7.0 mi NW 5.8 mph - 0.02 in Rain Light Rain
5:51 AM 35.1 °F 30.1 °F 33.1 °F 92% 29.66 in 10.0 mi West 5.8 mph - 0.03 in Rain Light Rain
6:51 AM 34.0 °F 29.8 °F 33.1 °F 96% 29.68 in 2.5 mi West 4.6 mph - 0.01 in Snow Light Snow
7:03 AM 33.8 °F - 32.0 °F 93% 29.63 in 3.0 mi Calm Calm - 0.01 in Snow Light Snow
7:21 AM 33.8 °F 29.6 °F 32.0 °F 93% 29.63 in 1.8 mi West 4.6 mph - 0.01 in Snow Light Snow
7:45 AM 33.8 °F 29.6 °F 32.0 °F 93% 29.64 in 3.0 mi WNW 4.6 mph - 0.03 in Snow Light Snow
7:51 AM 33.1 °F 27.7 °F 32.0 °F 96% 29.70 in 7.0 mi West 5.8 mph - 0.03 in Snow Light Snow
8:41 AM 33.8 °F 29.6 °F 32.0 °F 93% 29.67 in 2.5 mi West 4.6 mph - 0.01 in Snow Light Snow
8:51 AM 34.0 °F 29.8 °F 32.0 °F 92% 29.73 in 5.0 mi West 4.6 mph - 0.01 in   Overcast
9:32 AM 33.8 °F 29.6 °F 33.8 °F 100% 29.69 in 1.8 mi West 4.6 mph - N/A   Overcast
9:42 AM 33.8 °F 28.6 °F 33.8 °F 100% 29.70 in 0.2 mi WSW 5.8 mph - N/A Fog Fog
9:51 AM 34.0 °F 28.0 °F 33.1 °F 96% 29.75 in 0.2 mi West 6.9 mph - N/A Fog Fog
10:02 AM 33.8 °F 29.6 °F 33.8 °F 100% 29.70 in 0.2 mi West 4.6 mph - N/A Fog Fog
10:32 AM 33.8 °F 27.7 °F 33.8 °F 100% 29.71 in 1.0 mi West 6.9 mph - 0.01 in Snow Light Snow
10:51 AM 33.1 °F 27.7 °F 32.0 °F 96% 29.78 in 1.2 mi West 5.8 mph - 0.02 in Snow Light Snow
11:06 AM 33.8 °F 29.6 °F 32.0 °F 93% 29.73 in 3.0 mi West 4.6 mph - 0.01 in Snow Light Snow
11:20 AM 33.8 °F 29.6 °F 32.0 °F 93% 29.73 in 2.0 mi West 4.6 mph - 0.01 in Snow Light Snow
11:51 AM 35.1 °F 30.1 °F 33.1 °F 92% 29.80 in 5.0 mi West 5.8 mph - 0.02 in Snow Light Snow
11:59 AM 35.6 °F 29.9 °F 33.8 °F 93% 29.74 in 7.0 mi WNW 6.9 mph - 0.00 in Snow Light Snow
12:37 PM 35.6 °F 30.7 °F 33.8 °F 93% 29.74 in 10.0 mi WNW 5.8 mph - 0.00 in   Overcast
12:51 PM 36.0 °F 30.3 °F 35.1 °F 97% 29.80 in 10.0 mi WNW 6.9 mph - 0.00 in   Overcast
1:18 PM 35.6 °F 29.9 °F 33.8 °F 93% 29.75 in 10.0 mi WNW 6.9 mph - N/A   Overcast
1:38 PM 35.6 °F 30.7 °F 35.6 °F 100% 29.75 in 10.0 mi West 5.8 mph - N/A   Overcast
1:51 PM 37.0 °F 31.6 °F 34.0 °F 89% 29.80 in 10.0 mi NW 6.9 mph - N/A   Overcast
2:51 PM 37.9 °F 30.9 °F 34.0 °F 86% 29.80 in 10.0 mi West 10.4 mph - N/A   Overcast
3:21 PM 37.4 °F 31.4 °F 33.8 °F 87% 29.76 in 10.0 mi NNW 8.1 mph - N/A   Overcast
3:28 PM 37.4 °F 30.3 °F 33.8 °F 87% 29.76 in 10.0 mi NNW 10.4 mph - N/A   Overcast
3:38 PM 37.4 °F 30.3 °F 33.8 °F 87% 29.76 in 10.0 mi NW 10.4 mph - N/A   Overcast
3:51 PM 39.0 °F 32.3 °F 34.0 °F 82% 29.81 in 10.0 mi WNW 10.4 mph - N/A   Overcast
4:39 PM 35.6 °F 26.6 °F 32.0 °F 87% 29.79 in 5.0 mi WNW 13.8 mph 21.9 mph 0.00 in Rain Light Rain
4:48 PM 35.6 °F 27.1 °F 32.0 °F 87% 29.80 in 6.0 mi NW 12.7 mph 19.6 mph 0.00 in   Overcast
4:51 PM 36.0 °F 26.7 °F 32.0 °F 86% 29.85 in 7.0 mi NW 15.0 mph 19.6 mph 0.00 in   Overcast
4:57 PM 35.6 °F 27.5 °F 33.8 °F 93% 29.80 in 10.0 mi NW 11.5 mph 19.6 mph 0.00 in   Overcast
5:22 PM 35.6 °F 27.5 °F 33.8 °F 93% 29.81 in 10.0 mi NW 11.5 mph - 0.01 in   Overcast
5:33 PM 35.6 °F 28.0 °F 33.8 °F 93% 29.82 in 10.0 mi NW 10.4 mph - 0.01 in   Overcast
5:51 PM 36.0 °F 27.5 °F 32.0 °F 86% 29.88 in 10.0 mi NW 12.7 mph - 0.01 in   Overcast
6:12 PM 35.6 °F 28.6 °F 32.0 °F 87% 29.84 in 2.5 mi NW 9.2 mph - 0.00 in Snow Light Snow
6:26 PM 33.8 °F 24.8 °F 32.0 °F 93% 29.85 in 8.0 mi WNW 12.7 mph - 0.00 in   Overcast
6:51 PM 34.0 °F 25.0 °F 30.9 °F 89% 29.94 in 5.0 mi NW 12.7 mph - 0.00 in Snow Light Snow
7:03 PM 33.8 °F 25.3 °F 30.2 °F 87% 29.87 in 9.0 mi NW 11.5 mph 19.6 mph 0.00 in   Overcast
7:51 PM 33.1 °F 25.5 °F 30.0 °F 89% 29.97 in 10.0 mi NNW 9.2 mph - 0.00 in   Overcast
8:08 PM 33.8 °F 27.0 °F 30.2 °F 87% 29.91 in 10.0 mi NW 8.1 mph - N/A   Overcast
8:47 PM 33.8 °F 25.8 °F 28.4 °F 81% 29.93 in 9.0 mi NW 10.4 mph - 0.00 in Snow Light Snow
8:51 PM 33.1 °F 25.5 °F 28.9 °F 85% 30.00 in 9.0 mi NW 9.2 mph - 0.00 in Snow Light Snow
9:51 PM 33.1 °F 27.7 °F 30.0 °F 89% 30.03 in 9.0 mi NNW 5.8 mph - 0.00 in Snow Light Snow
10:51 PM 33.1 °F - 28.9 °F 85% 30.06 in 10.0 mi Calm Calm - 0.00 in   Overcast
11:51 PM 33.1 °F - 28.9 °F 85% 30.06 in 10.0 mi Calm Calm - N/A   Overcast